Content
SEND FEEDBACK

Daily
Averages
Monthly
Summary
United States of America

MOUNTAIN GROVE, MISSOURI


Home > North America > United States > Missouri
Elevation: 1425 feet     Latitude: 37 09N     Longitude: 092 16W

WEATHER
 
SELECT A DAY
Number of Records: 195,372;   Date Range: 8/15/96 - 12/19/14
 
SHARE

PRINT THIS DATA

[ ← Previous Day ]
WEATHER ALMANAC - JANUARY 7, 2013
[ Next Day → ]
[ °C ]   °F
Weather ElementAverageHighLow
Temperature31.4 °F44.1 °F (2:53 pm)19 °F (3:53 am)
Dewpoint20.3 °F26.1 °F (10:53 am)14 °F (3:53 am)
Humidity65 %81 % (3:53 am)42 % (3:53 pm)
Barometer30.32 in30.43 in (9:53 am)30.19 in (11:53 pm)
Wind Speed4.9 mph11.5 mph (11:53 am)
Weather ElementAverage
Visibility9.6 mi
Wind DirectionESE (110 °)

Weather ElementTotal
Precipitation---
Heating Degree Days33.5 (Base 65)
Averaged from 21 records on January 7, 2013
WEATHER CONDITIONS BREAKOUT
WIND DIRECTION BREAKOUT
WEATHER BY HOUR - JANUARY 7, 2013
[ °C ]   °F
Local TimeTemperatureDewpointHumidityBarometerVisibilityWind DirectionWind SpeedGust SpeedPrecipitationEventsConditions
1:53 AM21.0 °F15.1 °F78 %30.41 in10.0 miVariable3.5 mphClear
2:53 AM21.9 °F15.1 °F75 %30.40 in10.0 miSSE (150°)3.5 mphClear
3:53 AM19.0 °F14.0 °F81 %30.39 in9.0 miCalmClear
4:53 AM19.0 °F14.0 °F81 %30.38 in9.0 miCalmClear
5:53 AM21.0 °F15.1 °F78 %30.38 in10.0 miCalmClear
6:53 AM24.1 °F16.0 °F71 %30.40 in10.0 miSE (140°)4.6 mphClear
7:53 AM25.0 °F18.0 °F75 %30.41 in10.0 miSE (140°)4.6 mphClear
8:53 AM28.9 °F23.0 °F78 %30.41 in7.0 miSE (140°)6.9 mphClear
9:53 AM33.1 °F25.0 °F72 %30.43 in8.0 miSSE (160°)9.2 mphClear
10:53 AM36.0 °F26.1 °F67 %30.41 in8.0 miSSE (160°)8.1 mphClear
11:53 AM39.0 °F24.1 °F55 %30.35 in10.0 miSSE (160°)11.5 mphClear
1:53 PM43.0 °F23.0 °F45 %30.28 in10.0 miVariable5.8 mphClear
2:53 PM44.1 °F23.0 °F43 %30.27 in10.0 miSSE (160°)8.1 mphClear
3:53 PM44.1 °F21.9 °F42 %30.26 in10.0 miSouth (170°)6.9 mphClear
5:53 PM35.1 °F21.0 °F57 %30.25 in10.0 miSE (130°)3.5 mphClear
6:53 PM37.0 °F21.0 °F52 %30.23 in10.0 miSSE (150°)5.8 mphClear
7:53 PM35.1 °F19.9 °F54 %30.23 in10.0 miSSE (160°)4.6 mphClear
8:53 PM34.0 °F21.0 °F59 %30.23 in10.0 miSSE (160°)5.8 mphClear
9:53 PM34.0 °F23.0 °F64 %30.22 in10.0 miSSE (160°)5.8 mphClear
10:53 PM33.1 °F23.0 °F66 %30.21 in10.0 miSouth (170°)4.6 mphClear
11:53 PM30.9 °F23.0 °F72 %30.19 in10.0 miCalmClear
Hourly data recorded from KUNO, located miles away from Mountain Grove, Missouri







STORIES FROM OUR PARTNERS